GW5798 Weather Reports


Display with metric or nautical units.
time (UTC)temp
F
wind
direction
speed
MPH
gust
MPH
rain 1hr
in
rain 24hr
in
rain mn
in
humidity
%
barometer
mb
20260503235037 77 176 1.0 4.0 0.00 0.00 0.00 39 1017.9
20260503234027 77 146 1.0 4.0 0.00 0.00 0.00 37 1018.0
20260503233017 78 149 0.0 4.0 0.00 0.00 0.00 36 1018.2
20260503232108 78 147 2.0 6.0 0.00 0.00 0.00 35 1018.3
20260503231058 78 272 1.0 4.0 0.00 0.00 0.00 35 1018.4
20260503230108 79 146 1.0 7.0 0.00 0.00 0.00 34 1018.4
20260503225038 79 313 1.0 2.0 0.00 0.00 0.00 34 1018.4
20260503224028 79 100 2.0 4.0 0.00 0.00 0.00 34 1018.5
20260503223017 80 220 1.0 3.0 0.00 0.00 0.00 35 1018.7
20260503222108 79 160 2.0 4.0 0.00 0.00 0.00 34 1018.9
20260503221058 80 192 1.0 3.0 0.00 0.00 0.00 34 1019.0
20260503220048 80 168 2.0 4.0 0.00 0.00 0.00 33 1019.0
20260503215038 80 355 1.0 4.0 0.00 0.00 0.00 35 1019.1
20260503214028 80 101 1.0 2.0 0.00 0.00 0.00 33 1019.0
20260503213018 82 112 0.0 4.0 0.00 0.00 0.00 33 1019.4
20260503212109 82 225 1.0 4.0 0.00 0.00 0.00 33 1019.6
20260503211059 81 201 1.0 6.0 0.00 0.00 0.00 33 1019.6
20260503210049 81 285 2.0 4.0 0.00 0.00 0.00 34 1019.7
20260503205039 82 41 2.0 3.0 0.00 0.00 0.00 35 1019.9
20260503204029 81 103 1.0 2.0 0.00 0.00 0.00 34 1020.1
20260503203019 82 96 1.0 2.0 0.00 0.00 0.00 34 1020.3
20260503202110 82 223 1.0 3.0 0.00 0.00 0.00 34 1020.3
20260503201100 82 221 2.0 4.0 0.00 0.00 0.00 34 1020.5
20260503200050 81 185 0.0 2.0 0.00 0.00 0.00 35 1020.7
20260503195040 82 90 1.0 3.0 0.00 0.00 0.00 36 1020.9
20260503194030 81 239 1.0 4.0 0.00 0.00 0.00 34 1021.0
20260503193020 81 146 1.0 3.0 0.00 0.00 0.00 35 1021.2
20260503192151 82 81 1.0 4.0 0.00 0.00 0.00 35 1021.3
20260503191101 81 105 1.0 3.0 0.00 0.00 0.00 37 1021.4
20260503190051 81 150 1.0 6.0 0.00 0.00 0.00 36 1021.7
20260503185041 81 267 1.0 3.0 0.00 0.00 0.00 35 1021.8
20260503184050 80 40 1.0 4.0 0.00 0.00 0.00 37 1021.9
20260503183021 81 286 2.0 4.0 0.00 0.00 0.00 37 1021.9
20260503182131 81 289 0.0 2.0 0.00 0.00 0.00 35 1022.2
20260503181101 80 289 1.0 4.0 0.00 0.00 0.00 37 1022.3
20260503180051 80 107 1.0 3.0 0.00 0.00 0.00 35 1022.7
20260503175041 80 172 0.0 2.0 0.00 0.00 0.00 36 1022.7
20260503174031 81 206 1.0 3.0 0.00 0.00 0.00 38 1023.0
20260503173021 79 195 1.0 3.0 0.00 0.00 0.00 39 1023.2
20260503172132 79 199 2.0 4.0 0.00 0.00 0.00 39 1023.1
20260503171122 79 48 0.0 1.0 0.00 0.00 0.00 38 1023.5
20260503170112 79 157 1.0 3.0 0.00 0.00 0.00 39 1023.6
20260503160113 78 65 0.0 1.0 0.00 0.00 0.00 44 1023.6
20260503131105 65 0.0 0.0 0.00 0.00 0.00 97 1022.7
20260503100117 56 0.0 0.0 0.00 0.00 0.00 97 1021.6
20260503090118 56 0.0 0.0 0.00 0.00 0.00 96 1021.0
20260503081109 57 0.0 0.0 0.00 0.00 0.00 95 1021.4
20260503072019 57 0.0 0.0 0.00 0.00 0.00 94 1021.4
20260503071110 57 0.0 0.0 0.00 0.00 0.00 94 1021.5
20260503055050 58 0.0 0.0 0.00 0.00 0.00 93 1021.6
20260503054040 59 0.0 0.0 0.00 0.00 0.00 92 1021.6
20260503053030 59 0.0 0.0 0.00 0.00 0.00 92 1021.4
20260503052020 59 0.0 0.0 0.00 0.00 0.00 91 1021.3
20260503051111 60 0.0 0.0 0.00 0.00 0.00 91 1021.3
20260503050101 60 0.0 0.0 0.00 0.00 0.00 90 1021.3
20260503045051 60 0.0 0.0 0.00 0.00 0.00 89 1021.1
20260503044101 60 0.0 0.0 0.00 0.00 0.00 88 1021.1
20260503043031 60 0.0 0.0 0.00 0.00 0.00 87 1021.3
20260503042021 60 0.0 0.0 0.00 0.00 0.00 86 1021.1
20260503041112 61 0.0 0.0 0.00 0.00 0.00 84 1021.0
20260503040122 61 0.0 0.0 0.00 0.00 0.00 83 1021.2
20260503035052 62 0.0 0.0 0.00 0.00 0.00 82 1021.1
20260503034042 62 0.0 0.0 0.00 0.00 0.00 80 1020.9
20260503033032 62 0.0 0.0 0.00 0.00 0.00 80 1020.7
20260503032022 62 0.0 0.0 0.00 0.00 0.00 80 1020.6
20260503031112 62 0.0 0.0 0.00 0.00 0.00 79 1020.5
20260503025112 62 0.0 0.0 0.00 0.00 0.00 76 1020.5
20260503024102 63 0.0 0.0 0.00 0.00 0.00 75 1020.5
20260503023052 63 0.0 0.0 0.00 0.00 0.00 74 1020.3
20260503022022 64 0.0 0.0 0.00 0.01 0.00 73 1020.1
20260503021113 64 0.0 0.0 0.00 0.01 0.00 71 1020.0
20260503015113 66 0.0 0.0 0.00 0.03 0.00 67 1020.0
20260503014043 66 0.0 0.0 0.00 0.05 0.00 65 1019.7
20260503013033 67 0.0 0.0 0.00 0.09 0.00 64 1019.7
20260503012023 67 0.0 0.0 0.00 0.10 0.00 63 1019.5
20260503011114 69 0.0 0.0 0.00 0.11 0.00 61 1019.5
20260503010104 70 0.0 0.0 0.00 0.14 0.00 57 1019.4
20260503005114 71 0.0 0.0 0.00 0.18 0.00 56 1019.4
20260503004044 72 0.0 1.0 0.00 0.19 0.00 52 1019.1
20260503003114 73 345 0.0 2.0 0.00 0.20 0.00 50 1019.0
20260503002104 73 345 1.0 2.0 0.00 0.21 0.00 48 1018.9
20260503001115 73 28 1.0 3.0 0.00 0.24 0.00 47 1018.9
20260503000105 74 285 1.0 2.0 0.00 0.26 0.00 46 1018.8